SCP
-0 0 0 0 -0 -0 0 0 0 0 0 0 0 0 0 0 0 0 0 0 0 0 0 0 0 0 0 0 0 0 0 0 -0 -0 -0 0 -0 -0 -0 -0 0 0 0
-0 0 0 0 0 -0 0 0 0 0 0 0 0 0 0 0 0 0 0 0 0 0 0 0 0 0 0 0 0 0 0 0 0 0 0 0 -0 -0 -0 0 0 0 0
-0 0 0 0 0 0 0 0 0 0 0 0 0 0 -0 -0 0 0 0 0 0 0 0 0 0 0 0 0 0 0 0 0 0 0 0 -0 -0 0 -0 -0 0 -0 -0
-0 0 0 0 0 0 0 0 0 0 0 0 0 0 -0 0 0 0 0 0 0 0 0 0 0 0 0 0 0 0 0 0 0 0 -0 -0 -0 0 0 0 0 0 0
-0 0 0 0 0 0 0 0 0 0 0 0 0 0 0 0 0 0 0 0 0 0 0 0 0 0 0 0 0 0 0 0 0 0 0 0 0 0 0 0 0 0 0
0 0 -0 0 0 0 0 0 0 0 0 0 0 0 0 0 0 0 0 0 0 0 0 0 0 0 0 0 0 0 0 0 0 0 0 0 0 0 0 0 0 0 0
0 0 0 -0 0 0 0 0 0 0 0 0 0 0 0 0 0 0 0 0 0 0 0 0 0 0 0 0 0 0 0 0 0 0 0 0 0 0 0 0 0 0 0
0 0 0 0 0 0 0 0 0 0 0 0 0 0 0 0 0 0 0 0 0 0 0 0 0 0 0 0 0 0 0 0 0 0 0 0 0 0 0 0 0 0 0
0 0 0 0 0 0 0 0 0 0 0 0 0 0 0 0 0 0 0 0 0 0 0 0 0 0 0 0 0 0 0 0 0 0 0 0 0 0 0 0 0 0 0
0 0 0 0 0 0 0 0 0 0 0 0 0 0 0 0 0 0 0 0 0 0 0 0 0 0 0 0 0 0 0 0 0 0 0 0 0 0 0 0 0 0 0
0 0 0 0 0 0 0 0 0 0 0 0 0 0 0 0 0 0 0 0 0 0 0 0 0 0 0 0 0 0 0 0 0 0 0 0 0 0 0 0 0 0 0
0 0 0 0 0 0 0 0 0 0 0 0 0 0 0 0 0 0 0 0 0 0 0 0 0 0 0 0 0 0 0 0 0 0 0 0 0 0 0 0 0 0 0
0 0 0 0 0 0 0 0 0 0 0 0 0 0 0 0 0 0 0 0 0 0 0 0 0 0 0 0 0 0 0 0 0 0 0 0 0 0 0 0 0 0 0
0 0 0 0 0 0 0 0 0 0 0 0 0 0 0 0 0 0 0 0 0 0 0 0 0 0 0 0 0 0 0 0 0 0 0 0 0 0 0 0 0 0 0
0 0 0 0 0 0 0 0 0 0 0 0 0 0 0 0 0 0 0 0 0 0 0 0 0 0 0 0 0 0 0 0 0 0 0 0 0 0 0 0 0 0 0
0 0 0 0 0 0 0 0 0 0 0 0 0 0 0 0 0 0 0 0 0 0 0 0 0 0 0 0 0 0 0 0 0 0 0 0 0 0 0 0 0 0 0
0 0 0 0 0 0 0 0 0 0 0 0 0 0 0 0 0 0 0 0 0 0 0 0 0 0 0 0 0 0 0 0 0 0 0 0 0 0 0 0 0 0 0
0 -0 0 0 0 0 0 0 0 0 0 0 0 0 0 0 0 0 0 0 0 0 0 0 0 0 0 0 0 0 0 0 0 0 0 0 0 0 0 0 0 0 0
-0 -0 0 0 0 0 0 0 0 0 0 0 0 0 0 0 0 0 0 0 0 0 0 0 0 0 0 0 0 0 0 0 0 0 0 0 0 0 0 0 0 0 0
-0 -0 0 0 0 0 0 0 0 0 0 0 0 0 0 0 0 0 0 0 0 0 0 0 0 0 0 0 0 0 0 0 0 0 0 0 0 0 0 0 0 0 0
-0 -0 0 0 0 0 0 0 0 0 0 0 0 0 0 0 0 0 0 0 0 0 0 0 0 0 0 0 0 0 0 0 0 0 0 0 0 0 0 0 0 0 0
-0 -0 0 0 0 0 0 0 0 0 0 0 0 0 0 0 0 0 0 0 0 0 0 0 0 0 0 0 0 0 0 0 0 0 0 0 0 0 0 0 0 0 0
-0 -0 0 0 0 0 0 0 0 0 0 0 0 0 0 0 0 0 0 0 0 0 0 0 0 0 0 0 0 0 0 0 0 0 0 0 0 0 0 0 0 0 0
-0 0 0 0 0 0 0 0 0 0 0 0 1 0 0 0 0 0 0 0 0 0 0 0 0 0 0 0 0 0 0 0 0 0 0 0 0 0 0 0 0 0 0
0 0 0 0 0 0 0 0 0 0 0 0 0 0 0 0 0 0 0 0 0 0 0 0 0 0 0 0 0 0 0 0 0 0 0 0 0 0 0 0 0 0 0
0 0 0 0 -0 -0 -0 0 0 0 0 0 0 0 0 0 0 0 0 0 0 0 0 0 0 0 0 0 0 0 0 0 0 0 0 0 0 0 0 0 0 0 0
Wind_Speed_500mb
8 5 13 12 12 12 12 13 13 13 10 10 13 21 21 20 21 19 18 20 20 17 14 17 21 22 22 29 27 16 22 23 23 19 22 19 17 14 16 17 20 22 24
13 12 10 13 11 8 13 15 16 14 10 11 15 20 19 19 23 19 10 12 14 17 12 11 16 19 23 27 20 22 26 26 24 22 20 19 13 11 12 14 17 19 20
11 16 10 13 13 9 13 16 16 14 12 10 14 20 20 17 27 18 11 3 9 10 11 8 16 20 24 27 26 27 24 21 19 17 16 17 14 10 10 12 13 13 16
17 14 10 13 17 12 14 16 14 13 14 13 14 19 20 29 27 12 8 5 7 11 10 4 15 20 22 23 24 23 20 16 12 13 13 12 11 7 6 9 10 11 13
12 18 10 15 20 16 17 16 16 17 18 18 15 17 25 33 21 10 7 8 12 15 11 3 14 20 20 21 21 19 16 12 7 2 4 6 6 6 3 5 7 8 11
14 12 6 9 14 20 20 19 18 19 24 24 19 19 26 29 23 16 14 13 18 18 14 7 17 19 19 19 19 18 15 11 11 7 4 2 2 4 3 2 3 4 2
3 14 15 12 12 15 21 21 21 20 23 27 25 28 24 26 23 15 8 11 18 18 18 14 17 19 17 16 15 15 13 10 7 6 5 2 4 3 3 3 1 1 1
13 12 18 20 19 19 24 25 23 21 23 26 30 30 29 28 25 11 16 14 18 18 19 18 20 18 16 13 11 10 10 10 9 9 6 2 5 4 6 5 2 0 2
17 12 18 23 25 23 24 28 25 25 23 26 31 36 33 33 28 18 21 19 18 13 16 16 19 18 15 12 10 9 9 11 13 13 10 5 6 6 9 8 5 1 2
16 13 17 23 30 29 31 28 27 29 28 27 32 37 35 34 24 26 26 27 20 16 11 14 18 17 16 14 13 12 12 13 15 15 12 8 7 7 10 11 8 5 4
13 15 15 15 27 33 37 35 32 33 34 30 35 38 33 30 32 30 29 27 22 21 17 16 18 18 17 16 16 15 16 16 15 16 14 11 8 10 13 13 11 8 4
36 20 22 22 21 24 41 38 36 38 42 42 39 39 39 37 37 37 37 31 28 25 24 22 21 21 20 20 19 18 15 16 15 15 16 12 10 11 14 14 12 8 4
45 45 37 33 33 30 29 43 41 37 48 52 51 47 41 39 37 36 38 38 36 33 26 26 25 24 22 23 22 20 19 19 17 15 15 15 12 14 14 14 13 10 8
53 45 46 44 43 41 37 46 46 50 48 60 60 56 50 45 43 39 37 35 26 26 31 31 29 27 27 25 23 23 23 21 20 19 20 18 15 15 15 14 13 12 11
60 56 49 48 47 50 49 45 46 55 56 58 63 60 56 52 50 45 37 35 31 31 30 31 31 31 29 27 25 25 24 25 24 24 24 23 21 20 17 15 17 17 15
70 62 55 54 50 50 56 55 52 49 59 64 64 65 60 56 55 53 46 39 36 34 30 29 31 29 30 28 26 25 27 28 28 26 26 24 23 23 21 19 18 20 20
83 75 61 54 59 54 55 62 62 61 42 65 66 64 64 62 60 58 51 44 40 36 32 31 31 30 30 29 29 28 29 27 27 25 25 26 26 26 24 22 23 23 24
85 80 68 57 53 59 55 59 68 62 64 63 74 69 62 65 64 63 54 51 45 41 35 33 33 34 35 34 33 32 31 29 25 24 23 22 23 24 26 26 26 26 28
88 74 71 65 61 53 56 60 65 72 66 71 70 75 64 60 63 63 58 52 51 44 41 38 36 36 37 36 36 31 28 28 27 28 29 29 28 26 28 26 27 31 29
90 70 67 63 61 59 55 58 65 71 73 75 67 79 67 61 58 57 61 54 55 52 48 46 44 39 37 34 34 32 31 33 32 33 30 29 33 31 35 31 30 30 29
92 77 69 67 62 59 60 57 63 68 74 68 78 67 71 73 70 64 72 61 62 63 56 51 46 43 41 36 35 37 36 36 38 43 42 39 33 35 37 34 30 30 27
94 89 74 61 65 63 62 59 61 59 65 68 57 86 77 76 74 72 75 67 69 66 60 56 51 48 46 41 44 37 25 21 29 37 41 39 36 39 38 40 38 39 35
94 87 77 59 54 54 50 46 50 54 58 58 53 59 67 72 75 78 79 76 69 69 70 61 55 55 52 46 49 39 17 22 19 18 26 36 38 42 42 44 41 51 48
91 79 60 49 46 55 34 31 36 46 47 46 43 50 52 70 81 69 78 72 69 73 75 65 56 57 54 54 49 53 56 31 16 13 15 21 31 38 45 54 51 56 56
88 73 62 55 46 32 13 12 19 31 25 25 33 50 56 67 57 70 71 78 77 77 82 74 67 63 60 62 60 56 56 57 51 49 17 19 25 20 25 36 45 51 48
83 75 70 61 60 35 29 16 14 5 11 23 27 35 37 28 27 7 20 41 30 10 13 30 71 72 74 67 72 63 65 68 72 62 37 42 40 40 42 41 38 39 38
Wind_Direction_500mb
267 236 209 191 173 179 178 180 176 161 154 154 148 145 147 151 145 122 96 71 61 66 91 116 130 132 132 155 154 129 116 123 141 127 112 113 107 87 75 80 79 78 71
217 211 225 211 198 198 188 187 184 169 157 153 155 154 155 159 150 130 97 43 46 50 68 87 104 114 112 141 150 138 122 119 120 114 110 106 97 91 84 82 76 78 71
179 204 216 226 219 201 195 176 179 186 176 170 173 173 177 179 166 153 146 139 23 29 28 107 119 118 122 128 135 133 126 120 120 119 111 108 102 90 82 75 71 67 76
176 212 207 264 229 208 205 196 197 200 194 192 202 197 195 166 160 170 187 232 316 340 359 130 142 133 129 129 133 134 132 120 109 110 109 96 86 84 77 75 76 76 76
262 205 229 343 240 228 211 221 226 230 220 210 209 201 194 175 173 159 219 263 283 303 318 247 153 152 143 140 140 147 150 143 149 137 123 81 52 52 36 66 79 88 97
318 227 258 316 266 240 226 226 237 238 228 219 209 182 175 181 174 189 233 272 277 275 283 269 175 164 159 156 155 156 162 166 165 181 151 229 339 22 359 4 90 121 89
283 261 234 268 284 264 239 241 244 239 225 216 212 196 187 192 187 197 257 273 283 269 263 253 190 170 165 164 163 166 175 194 205 212 192 212 265 315 333 326 4 118 98
314 253 240 258 255 264 270 252 246 235 223 214 210 204 207 213 207 199 276 278 285 262 247 243 188 179 179 182 181 183 192 213 221 247 246 240 283 299 304 300 304 124 186
323 280 259 250 250 252 260 257 246 225 218 217 213 206 209 214 218 228 262 276 291 267 246 221 188 190 193 200 204 206 214 226 237 246 262 254 283 295 291 289 288 276 198
324 307 266 259 255 257 254 249 253 233 220 220 213 206 212 214 227 241 250 261 282 283 257 217 200 198 204 209 217 220 225 235 240 245 256 249 270 299 292 284 279 267 239
333 326 322 286 264 258 256 245 245 236 226 218 211 209 222 229 229 243 248 253 269 280 256 228 219 214 217 222 227 230 234 237 234 247 254 254 266 292 292 281 279 272 249
338 321 307 300 287 273 255 244 246 235 229 220 215 224 235 239 244 249 251 254 264 272 263 242 234 230 229 231 234 235 238 232 233 248 249 264 269 282 287 278 272 258 221
324 317 308 288 285 287 262 240 238 237 228 224 221 227 237 240 238 244 249 250 256 265 262 253 245 241 240 240 240 242 239 242 242 251 247 258 265 277 285 275 267 249 208
341 325 309 296 281 276 274 248 241 236 235 226 225 226 231 232 233 239 245 245 246 264 269 254 245 242 243 245 248 255 255 257 256 253 252 257 265 272 278 273 262 248 227
336 330 317 300 290 274 269 261 252 232 233 233 231 230 228 229 231 236 236 241 252 270 269 252 243 240 242 244 248 257 262 263 259 255 254 259 265 266 265 264 255 251 243
336 324 314 299 290 282 268 260 255 256 232 236 234 234 231 232 233 234 234 237 246 261 263 254 244 243 245 248 250 258 260 255 253 252 254 257 260 262 262 262 258 255 250
338 328 322 298 285 279 267 255 253 254 256 232 236 235 231 232 234 236 240 242 246 250 256 255 246 246 250 254 259 262 266 263 259 258 260 262 264 263 262 261 261 259 257
342 330 318 315 297 280 266 255 248 249 243 228 235 234 236 229 227 232 233 242 243 242 248 255 254 252 255 256 263 268 266 259 256 253 255 258 264 271 266 267 267 269 262
342 331 323 319 311 299 275 257 247 242 239 240 227 231 232 227 223 224 229 244 239 237 241 248 253 255 255 258 260 262 262 260 260 259 261 263 265 270 270 270 269 270 255
344 334 320 314 314 310 292 260 252 239 236 233 236 233 228 226 230 230 234 244 239 236 239 240 245 249 253 258 259 265 265 260 259 262 261 272 265 263 261 261 270 263 245
346 339 332 324 318 311 297 274 251 243 233 234 236 232 231 230 236 234 238 243 239 238 240 242 245 246 250 252 254 260 265 267 264 257 254 259 252 250 250 258 255 242 234
345 339 333 331 319 309 291 278 253 240 230 235 236 235 231 230 236 236 233 235 238 237 241 239 239 243 249 246 246 252 269 260 253 249 245 239 243 247 244 251 252 241 232
349 342 337 332 325 308 297 272 258 230 227 224 233 239 239 233 236 232 232 233 235 237 238 238 240 240 244 244 240 232 215 233 213 231 230 229 239 237 242 243 229 237 227
356 356 347 347 322 319 288 269 251 223 225 228 231 241 250 237 239 238 237 234 237 241 241 239 242 243 243 245 239 237 238 239 201 194 210 211 216 219 218 216 199 186 175
8 6 14 16 5 344 318 274 229 207 222 234 239 236 224 239 241 248 239 238 239 248 244 238 239 241 242 243 241 243 240 242 241 246 211 177 198 182 182 168 148 143 141
21 22 29 37 47 48 48 65 122 171 228 236 215 191 183 165 172 187 163 202 185 86 239 246 237 241 243 237 239 242 244 234 234 231 213 167 152 130 130 131 123 110 105
Wind_Speed_850mb
8 5 13 12 12 12 12 13 13 13 10 10 13 21 21 20 21 19 18 20 20 17 14 17 21 22 22 29 27 16 22 23 23 19 22 19 17 14 16 17 20 22 24
13 12 10 13 11 8 13 15 16 14 10 11 15 20 19 19 23 19 10 12 14 17 12 11 16 19 23 27 20 22 26 26 24 22 20 19 13 11 12 14 17 19 20
11 16 10 13 13 9 13 16 16 14 12 10 14 20 20 17 27 18 11 3 9 10 11 8 16 20 24 27 26 27 24 21 19 17 16 17 14 10 10 12 13 13 16
17 14 10 13 17 12 14 16 14 13 14 13 14 19 20 29 27 12 8 5 7 11 10 4 15 20 22 23 24 23 20 16 12 13 13 12 11 7 6 9 10 11 13
12 18 10 15 20 16 17 16 16 17 18 18 15 17 25 33 21 10 7 8 12 15 11 3 14 20 20 21 21 19 16 12 7 2 4 6 6 6 3 5 7 8 11
14 12 6 9 14 20 20 19 18 19 24 24 19 19 26 29 23 16 14 13 18 18 14 7 17 19 19 19 19 18 15 11 11 7 4 2 2 4 3 2 3 4 2
3 14 15 12 12 15 21 21 21 20 23 27 25 28 24 26 23 15 8 11 18 18 18 14 17 19 17 16 15 15 13 10 7 6 5 2 4 3 3 3 1 1 1
13 12 18 20 19 19 24 25 23 21 23 26 30 30 29 28 25 11 16 14 18 18 19 18 20 18 16 13 11 10 10 10 9 9 6 2 5 4 6 5 2 0 2
17 12 18 23 25 23 24 28 25 25 23 26 31 36 33 33 28 18 21 19 18 13 16 16 19 18 15 12 10 9 9 11 13 13 10 5 6 6 9 8 5 1 2
16 13 17 23 30 29 31 28 27 29 28 27 32 37 35 34 24 26 26 27 20 16 11 14 18 17 16 14 13 12 12 13 15 15 12 8 7 7 10 11 8 5 4
13 15 15 15 27 33 37 35 32 33 34 30 35 38 33 30 32 30 29 27 22 21 17 16 18 18 17 16 16 15 16 16 15 16 14 11 8 10 13 13 11 8 4
36 20 22 22 21 24 41 38 36 38 42 42 39 39 39 37 37 37 37 31 28 25 24 22 21 21 20 20 19 18 15 16 15 15 16 12 10 11 14 14 12 8 4
45 45 37 33 33 30 29 43 41 37 48 52 51 47 41 39 37 36 38 38 36 33 26 26 25 24 22 23 22 20 19 19 17 15 15 15 12 14 14 14 13 10 8
53 45 46 44 43 41 37 46 46 50 48 60 60 56 50 45 43 39 37 35 26 26 31 31 29 27 27 25 23 23 23 21 20 19 20 18 15 15 15 14 13 12 11
60 56 49 48 47 50 49 45 46 55 56 58 63 60 56 52 50 45 37 35 31 31 30 31 31 31 29 27 25 25 24 25 24 24 24 23 21 20 17 15 17 17 15
70 62 55 54 50 50 56 55 52 49 59 64 64 65 60 56 55 53 46 39 36 34 30 29 31 29 30 28 26 25 27 28 28 26 26 24 23 23 21 19 18 20 20
83 75 61 54 59 54 55 62 62 61 42 65 66 64 64 62 60 58 51 44 40 36 32 31 31 30 30 29 29 28 29 27 27 25 25 26 26 26 24 22 23 23 24
85 80 68 57 53 59 55 59 68 62 64 63 74 69 62 65 64 63 54 51 45 41 35 33 33 34 35 34 33 32 31 29 25 24 23 22 23 24 26 26 26 26 28
88 74 71 65 61 53 56 60 65 72 66 71 70 75 64 60 63 63 58 52 51 44 41 38 36 36 37 36 36 31 28 28 27 28 29 29 28 26 28 26 27 31 29
90 70 67 63 61 59 55 58 65 71 73 75 67 79 67 61 58 57 61 54 55 52 48 46 44 39 37 34 34 32 31 33 32 33 30 29 33 31 35 31 30 30 29
92 77 69 67 62 59 60 57 63 68 74 68 78 67 71 73 70 64 72 61 62 63 56 51 46 43 41 36 35 37 36 36 38 43 42 39 33 35 37 34 30 30 27
94 89 74 61 65 63 62 59 61 59 65 68 57 86 77 76 74 72 75 67 69 66 60 56 51 48 46 41 44 37 25 21 29 37 41 39 36 39 38 40 38 39 35
94 87 77 59 54 54 50 46 50 54 58 58 53 59 67 72 75 78 79 76 69 69 70 61 55 55 52 46 49 39 17 22 19 18 26 36 38 42 42 44 41 51 48
91 79 60 49 46 55 34 31 36 46 47 46 43 50 52 70 81 69 78 72 69 73 75 65 56 57 54 54 49 53 56 31 16 13 15 21 31 38 45 54 51 56 56
88 73 62 55 46 32 13 12 19 31 25 25 33 50 56 67 57 70 71 78 77 77 82 74 67 63 60 62 60 56 56 57 51 49 17 19 25 20 25 36 45 51 48
83 75 70 61 60 35 29 16 14 5 11 23 27 35 37 28 27 7 20 41 30 10 13 30 71 72 74 67 72 63 65 68 72 62 37 42 40 40 42 41 38 39 38
Wind_Direction_850mb
267 236 209 191 173 179 178 180 176 161 154 154 148 145 147 151 145 122 96 71 61 66 91 116 130 132 132 155 154 129 116 123 141 127 112 113 107 87 75 80 79 78 71
217 211 225 211 198 198 188 187 184 169 157 153 155 154 155 159 150 130 97 43 46 50 68 87 104 114 112 141 150 138 122 119 120 114 110 106 97 91 84 82 76 78 71
179 204 216 226 219 201 195 176 179 186 176 170 173 173 177 179 166 153 146 139 23 29 28 107 119 118 122 128 135 133 126 120 120 119 111 108 102 90 82 75 71 67 76
176 212 207 264 229 208 205 196 197 200 194 192 202 197 195 166 160 170 187 232 316 340 359 130 142 133 129 129 133 134 132 120 109 110 109 96 86 84 77 75 76 76 76
262 205 229 343 240 228 211 221 226 230 220 210 209 201 194 175 173 159 219 263 283 303 318 247 153 152 143 140 140 147 150 143 149 137 123 81 52 52 36 66 79 88 97
318 227 258 316 266 240 226 226 237 238 228 219 209 182 175 181 174 189 233 272 277 275 283 269 175 164 159 156 155 156 162 166 165 181 151 229 339 22 359 4 90 121 89
283 261 234 268 284 264 239 241 244 239 225 216 212 196 187 192 187 197 257 273 283 269 263 253 190 170 165 164 163 166 175 194 205 212 192 212 265 315 333 326 4 118 98
314 253 240 258 255 264 270 252 246 235 223 214 210 204 207 213 207 199 276 278 285 262 247 243 188 179 179 182 181 183 192 213 221 247 246 240 283 299 304 300 304 124 186
323 280 259 250 250 252 260 257 246 225 218 217 213 206 209 214 218 228 262 276 291 267 246 221 188 190 193 200 204 206 214 226 237 246 262 254 283 295 291 289 288 276 198
324 307 266 259 255 257 254 249 253 233 220 220 213 206 212 214 227 241 250 261 282 283 257 217 200 198 204 209 217 220 225 235 240 245 256 249 270 299 292 284 279 267 239
333 326 322 286 264 258 256 245 245 236 226 218 211 209 222 229 229 243 248 253 269 280 256 228 219 214 217 222 227 230 234 237 234 247 254 254 266 292 292 281 279 272 249
338 321 307 300 287 273 255 244 246 235 229 220 215 224 235 239 244 249 251 254 264 272 263 242 234 230 229 231 234 235 238 232 233 248 249 264 269 282 287 278 272 258 221
324 317 308 288 285 287 262 240 238 237 228 224 221 227 237 240 238 244 249 250 256 265 262 253 245 241 240 240 240 242 239 242 242 251 247 258 265 277 285 275 267 249 208
341 325 309 296 281 276 274 248 241 236 235 226 225 226 231 232 233 239 245 245 246 264 269 254 245 242 243 245 248 255 255 257 256 253 252 257 265 272 278 273 262 248 227
336 330 317 300 290 274 269 261 252 232 233 233 231 230 228 229 231 236 236 241 252 270 269 252 243 240 242 244 248 257 262 263 259 255 254 259 265 266 265 264 255 251 243
336 324 314 299 290 282 268 260 255 256 232 236 234 234 231 232 233 234 234 237 246 261 263 254 244 243 245 248 250 258 260 255 253 252 254 257 260 262 262 262 258 255 250
338 328 322 298 285 279 267 255 253 254 256 232 236 235 231 232 234 236 240 242 246 250 256 255 246 246 250 254 259 262 266 263 259 258 260 262 264 263 262 261 261 259 257
342 330 318 315 297 280 266 255 248 249 243 228 235 234 236 229 227 232 233 242 243 242 248 255 254 252 255 256 263 268 266 259 256 253 255 258 264 271 266 267 267 269 262
342 331 323 319 311 299 275 257 247 242 239 240 227 231 232 227 223 224 229 244 239 237 241 248 253 255 255 258 260 262 262 260 260 259 261 263 265 270 270 270 269 270 255
344 334 320 314 314 310 292 260 252 239 236 233 236 233 228 226 230 230 234 244 239 236 239 240 245 249 253 258 259 265 265 260 259 262 261 272 265 263 261 261 270 263 245
346 339 332 324 318 311 297 274 251 243 233 234 236 232 231 230 236 234 238 243 239 238 240 242 245 246 250 252 254 260 265 267 264 257 254 259 252 250 250 258 255 242 234
345 339 333 331 319 309 291 278 253 240 230 235 236 235 231 230 236 236 233 235 238 237 241 239 239 243 249 246 246 252 269 260 253 249 245 239 243 247 244 251 252 241 232
349 342 337 332 325 308 297 272 258 230 227 224 233 239 239 233 236 232 232 233 235 237 238 238 240 240 244 244 240 232 215 233 213 231 230 229 239 237 242 243 229 237 227
356 356 347 347 322 319 288 269 251 223 225 228 231 241 250 237 239 238 237 234 237 241 241 239 242 243 243 245 239 237 238 239 201 194 210 211 216 219 218 216 199 186 175
8 6 14 16 5 344 318 274 229 207 222 234 239 236 224 239 241 248 239 238 239 248 244 238 239 241 242 243 241 243 240 242 241 246 211 177 198 182 182 168 148 143 141
21 22 29 37 47 48 48 65 122 171 228 236 215 191 183 165 172 187 163 202 185 86 239 246 237 241 243 237 239 242 244 234 234 231 213 167 152 130 130 131 123 110 105